Time,TemperatureF,DewpointF,PressureIn,WindDirection,WindDirectionDegrees,WindSpeedMPH,WindSpeedGustMPH,Humidity,HourlyPrecipIn,Conditions,Clouds,dailyrainin,SoftwareType,DateUTC
2013-02-13 00:01:00,46.0,42.0,30.33,ENE,68,0.0,1.0,87,0.00,,,0.00,,2013-02-13 08:01:00,
2013-02-13 00:11:00,46.0,42.0,30.33,ENE,68,0.0,1.0,87,0.00,,,0.00,,2013-02-13 08:11:00,
2013-02-13 00:21:00,46.0,42.0,30.33,ENE,68,0.0,1.0,87,0.00,,,0.00,,2013-02-13 08:21:00,
2013-02-13 00:31:00,46.0,42.0,30.34,East,79,1.0,1.0,87,0.00,,,0.00,,2013-02-13 08:31:00,
2013-02-13 00:42:00,46.0,42.0,30.34,East,79,1.0,1.0,87,0.00,,,0.00,,2013-02-13 08:42:00,
2013-02-13 00:52:00,45.0,42.0,30.34,East,81,1.0,1.0,88,0.00,,,0.00,,2013-02-13 08:52:00,
2013-02-13 01:01:00,45.0,42.0,30.33,ENE,68,1.0,2.0,88,0.00,,,0.00,,2013-02-13 09:01:00,
2013-02-13 01:11:00,45.0,42.0,30.33,ENE,68,1.0,2.0,88,0.00,,,0.00,,2013-02-13 09:11:00,
2013-02-13 01:21:00,45.0,42.0,30.33,NE,52,1.0,2.0,90,0.00,,,0.00,,2013-02-13 09:21:00,
2013-02-13 01:31:00,46.0,44.0,30.33,SE,136,0.0,1.0,91,0.00,,,0.00,,2013-02-13 09:31:00,
2013-02-13 01:41:00,46.0,44.0,30.33,SW,225,0.0,2.0,92,0.00,,,0.00,,2013-02-13 09:41:00,
2013-02-13 01:52:00,46.0,44.0,30.33,SW,225,0.0,2.0,92,0.00,,,0.00,,2013-02-13 09:52:00,
2013-02-13 02:01:00,47.0,45.0,30.34,WSW,257,2.0,4.0,93,0.00,,,0.00,,2013-02-13 10:01:00,
2013-02-13 02:11:00,47.0,45.0,30.34,WSW,257,2.0,4.0,93,0.00,,,0.00,,2013-02-13 10:11:00,
2013-02-13 02:21:00,48.0,46.0,30.34,WSW,247,3.0,5.0,93,0.00,,,0.00,,2013-02-13 10:21:00,
2013-02-13 02:31:00,48.0,46.0,30.34,South,176,2.0,5.0,92,0.00,,,0.00,,2013-02-13 10:31:00,
2013-02-13 02:41:00,48.0,46.0,30.33,SW,221,2.0,6.0,92,0.00,,,0.00,,2013-02-13 10:41:00,
2013-02-13 02:52:00,48.0,46.0,30.33,SW,221,2.0,6.0,92,0.00,,,0.00,,2013-02-13 10:52:00,
2013-02-13 03:01:00,47.0,45.0,30.32,SW,223,1.0,3.0,91,0.00,,,0.00,,2013-02-13 11:01:00,
2013-02-13 03:11:00,47.0,45.0,30.32,SW,223,1.0,3.0,91,0.00,,,0.00,,2013-02-13 11:11:00,
2013-02-13 03:22:00,47.0,45.0,30.33,West,260,1.0,2.0,92,0.00,,,0.00,,2013-02-13 11:22:00,
2013-02-13 03:31:00,46.0,44.0,30.32,SSW,203,1.0,2.0,93,0.00,,,0.00,,2013-02-13 11:31:00,
2013-02-13 03:41:00,45.0,43.0,30.32,East,91,1.0,2.0,93,0.00,,,0.00,,2013-02-13 11:41:00,
2013-02-13 03:52:00,45.0,43.0,30.32,East,91,1.0,2.0,93,0.00,,,0.00,,2013-02-13 11:52:00,
2013-02-13 04:02:00,44.0,42.0,30.32,ENE,72,1.0,2.0,94,0.00,,,0.00,,2013-02-13 12:02:00,
2013-02-13 04:11:00,44.0,42.0,30.32,ENE,72,1.0,2.0,94,0.00,,,0.00,,2013-02-13 12:11:00,
2013-02-13 04:21:00,44.0,42.0,30.32,ENE,75,0.0,1.0,94,0.00,,,0.00,,2013-02-13 12:21:00,
2013-02-13 04:31:00,44.0,42.0,30.32,ENE,75,0.0,0.0,94,0.00,,,0.00,,2013-02-13 12:31:00,
2013-02-13 04:42:00,44.0,42.0,30.32,ENE,75,0.0,0.0,94,0.00,,,0.00,,2013-02-13 12:42:00,
2013-02-13 04:52:00,44.0,42.0,30.32,North,6,1.0,2.0,94,0.00,,,0.00,,2013-02-13 12:52:00,
2013-02-13 05:02:00,44.0,43.0,30.32,North,11,0.0,0.0,95,0.00,,,0.00,,2013-02-13 13:02:00,
2013-02-13 05:11:00,44.0,43.0,30.32,North,11,0.0,0.0,95,0.00,,,0.00,,2013-02-13 13:11:00,
2013-02-13 05:21:00,44.0,42.0,30.32,North,11,0.0,0.0,94,0.00,,,0.00,,2013-02-13 13:21:00,
2013-02-13 05:31:00,44.0,42.0,30.32,North,11,0.0,0.0,93,0.00,,,0.00,,2013-02-13 13:31:00,
2013-02-13 05:41:00,43.0,41.0,30.32,North,11,0.0,0.0,94,0.00,,,0.00,,2013-02-13 13:41:00,
2013-02-13 05:52:00,43.0,41.0,30.32,North,11,0.0,0.0,94,0.00,,,0.00,,2013-02-13 13:52:00,
2013-02-13 06:01:00,43.0,41.0,30.32,NNW,334,0.0,0.0,94,0.00,,,0.00,,2013-02-13 14:01:00,
2013-02-13 06:11:00,43.0,41.0,30.32,NNW,334,0.0,0.0,94,0.00,,,0.00,,2013-02-13 14:11:00,
2013-02-13 06:21:00,42.0,40.0,30.33,NNW,328,2.0,2.0,93,0.00,,,0.00,,2013-02-13 14:21:00,
2013-02-13 06:31:00,42.0,40.0,30.32,WNW,302,2.0,2.0,92,0.00,,,0.00,,2013-02-13 14:31:00,
2013-02-13 06:41:00,42.0,40.0,30.33,NW,311,1.0,3.0,92,0.00,,,0.00,,2013-02-13 14:41:00,
2013-02-13 06:52:00,42.0,40.0,30.33,NW,311,1.0,3.0,92,0.00,,,0.00,,2013-02-13 14:52:00,
2013-02-13 07:01:00,42.0,40.0,30.33,NNW,333,1.0,2.0,92,0.00,,,0.00,,2013-02-13 15:01:00,
2013-02-13 07:11:00,43.0,41.0,30.33,NE,49,1.0,1.0,91,0.00,,,0.00,,2013-02-13 15:11:00,
2013-02-13 07:21:00,43.0,41.0,30.33,NE,49,1.0,1.0,91,0.00,,,0.00,,2013-02-13 15:21:00,
2013-02-13 07:31:00,43.0,41.0,30.33,NW,316,0.0,1.0,91,0.00,,,0.00,,2013-02-13 15:31:00,
2013-02-13 07:41:00,43.0,41.0,30.33,NW,316,0.0,1.0,91,0.00,,,0.00,,2013-02-13 15:41:00,
2013-02-13 07:52:00,44.0,42.0,30.34,WNW,289,1.0,1.0,91,0.00,,,0.00,,2013-02-13 15:52:00,
2013-02-13 08:01:00,44.0,42.0,30.34,NW,326,0.0,1.0,92,0.00,,,0.00,,2013-02-13 16:01:00,
2013-02-13 08:11:00,45.0,43.0,30.35,ENE,69,2.0,2.0,94,0.00,,,0.00,,2013-02-13 16:11:00,
2013-02-13 08:21:00,45.0,43.0,30.35,ENE,69,2.0,2.0,94,0.00,,,0.00,,2013-02-13 16:21:00,
2013-02-13 08:31:00,46.0,44.0,30.35,East,82,2.0,2.0,94,0.00,,,0.00,,2013-02-13 16:31:00,
2013-02-13 08:41:00,46.0,44.0,30.35,East,82,2.0,2.0,94,0.00,,,0.00,,2013-02-13 16:41:00,
2013-02-13 08:52:00,46.0,45.0,30.35,ENE,76,1.0,2.0,95,0.00,,,0.00,,2013-02-13 16:52:00,
2013-02-13 09:01:00,46.0,45.0,30.34,East,91,0.0,0.0,95,0.00,,,0.00,,2013-02-13 17:01:00,
2013-02-13 09:11:00,46.0,45.0,30.34,East,91,0.0,0.0,95,0.00,,,0.00,,2013-02-13 17:11:00,
2013-02-13 09:21:00,46.0,45.0,30.34,ENE,77,1.0,2.0,95,0.00,,,0.00,,2013-02-13 17:21:00,
2013-02-13 09:31:00,46.0,45.0,30.35,ENE,76,0.0,1.0,95,0.00,,,0.00,,2013-02-13 17:31:00,
2013-02-13 09:41:00,46.0,45.0,30.35,ENE,76,0.0,1.0,95,0.00,,,0.00,,2013-02-13 17:41:00,
2013-02-13 09:52:00,46.0,44.0,30.35,WNW,295,2.0,3.0,94,0.00,,,0.00,,2013-02-13 17:52:00,
2013-02-13 10:01:00,46.0,44.0,30.35,WNW,295,2.0,4.0,93,0.00,,,0.00,,2013-02-13 18:01:00,
2013-02-13 10:11:00,46.0,44.0,30.35,WNW,295,2.0,4.0,93,0.00,,,0.00,,2013-02-13 18:11:00,
2013-02-13 10:22:00,46.0,44.0,30.35,East,91,1.0,3.0,93,0.00,,,0.00,,2013-02-13 18:22:00,
2013-02-13 10:31:00,46.0,44.0,30.35,NE,53,2.0,4.0,92,0.00,,,0.00,,2013-02-13 18:31:00,
2013-02-13 10:41:00,46.0,44.0,30.35,NE,53,2.0,4.0,92,0.00,,,0.00,,2013-02-13 18:41:00,
2013-02-13 10:52:00,47.0,45.0,30.35,NNW,330,0.0,3.0,92,0.00,,,0.00,,2013-02-13 18:52:00,
2013-02-13 11:01:00,48.0,45.0,30.35,SE,129,0.0,2.0,89,0.00,,,0.00,,2013-02-13 19:01:00,
2013-02-13 11:11:00,50.0,47.0,30.35,SSW,211,2.0,3.0,88,0.00,,,0.00,,2013-02-13 19:11:00,
2013-02-13 11:21:00,50.0,47.0,30.35,SSW,211,2.0,3.0,88,0.00,,,0.00,,2013-02-13 19:21:00,
2013-02-13 11:31:00,50.0,46.0,30.34,SSW,197,4.0,5.0,85,0.00,,,0.00,,2013-02-13 19:31:00,
2013-02-13 11:41:00,50.0,46.0,30.34,SSW,197,4.0,5.0,85,0.00,,,0.00,,2013-02-13 19:41:00,
2013-02-13 11:52:00,51.0,47.0,30.34,SSE,163,3.0,5.0,85,0.00,,,0.00,,2013-02-13 19:52:00,
2013-02-13 12:01:00,51.0,47.0,30.33,SW,236,1.0,5.0,85,0.00,,,0.00,,2013-02-13 20:01:00,
2013-02-13 12:11:00,50.0,45.0,30.32,SW,229,2.0,6.0,84,0.00,,,0.00,,2013-02-13 20:11:00,
2013-02-13 12:21:00,50.0,45.0,30.32,SW,229,2.0,6.0,84,0.00,,,0.00,,2013-02-13 20:21:00,
2013-02-13 12:31:00,51.0,46.0,30.32,South,177,1.0,2.0,82,0.00,,,0.00,,2013-02-13 20:31:00,
2013-02-13 12:41:00,53.0,47.0,30.31,WSW,255,2.0,4.0,80,0.00,,,0.00,,2013-02-13 20:41:00,
2013-02-13 12:52:00,53.0,47.0,30.31,WSW,255,2.0,4.0,80,0.00,,,0.00,,2013-02-13 20:52:00,
2013-02-13 13:01:00,53.0,47.0,30.30,SW,225,3.0,4.0,80,0.00,,,0.00,,2013-02-13 21:01:00,
2013-02-13 13:11:00,53.0,47.0,30.30,SW,225,3.0,4.0,80,0.00,,,0.00,,2013-02-13 21:11:00,
2013-02-13 13:21:00,53.0,47.0,30.30,SW,233,4.0,6.0,79,0.00,,,0.00,,2013-02-13 21:21:00,
2013-02-13 13:31:00,53.0,48.0,30.29,SW,224,5.0,7.0,83,0.00,,,0.00,,2013-02-13 21:31:00,
2013-02-13 13:42:00,53.0,48.0,30.29,SW,224,5.0,7.0,83,0.00,,,0.00,,2013-02-13 21:42:00,
2013-02-13 13:52:00,53.0,47.0,30.28,SW,224,5.0,8.0,81,0.00,,,0.00,,2013-02-13 21:52:00,
2013-02-13 14:01:00,54.0,48.0,30.27,SW,225,5.0,8.0,81,0.00,,,0.00,,2013-02-13 22:01:00,
2013-02-13 14:11:00,54.0,48.0,30.27,SW,225,5.0,8.0,81,0.00,,,0.00,,2013-02-13 22:11:00,
2013-02-13 14:21:00,54.0,48.0,30.26,SW,228,6.0,8.0,79,0.00,,,0.00,,2013-02-13 22:21:00,
2013-02-13 14:31:00,54.0,49.0,30.26,WSW,243,6.0,9.0,82,0.00,,,0.00,,2013-02-13 22:31:00,
2013-02-13 14:42:00,54.0,49.0,30.26,WSW,243,6.0,9.0,82,0.00,,,0.00,,2013-02-13 22:42:00,
2013-02-13 14:52:00,53.0,48.0,30.26,South,171,5.0,9.0,83,0.00,,,0.00,,2013-02-13 22:52:00,
2013-02-13 15:01:00,54.0,49.0,30.25,SW,230,4.0,7.0,82,0.00,,,0.00,,2013-02-13 23:01:00,
2013-02-13 15:11:00,54.0,49.0,30.25,SW,230,4.0,7.0,82,0.00,,,0.00,,2013-02-13 23:11:00,
2013-02-13 15:21:00,54.0,48.0,30.25,SW,229,4.0,8.0,80,0.00,,,0.00,,2013-02-13 23:21:00,
2013-02-13 15:31:00,54.0,48.0,30.25,WSW,241,7.0,10.0,79,0.00,,,0.00,,2013-02-13 23:31:00,
2013-02-13 15:41:00,54.0,48.0,30.25,WSW,241,7.0,10.0,79,0.00,,,0.00,,2013-02-13 23:41:00,
2013-02-13 15:52:00,53.0,48.0,30.25,WSW,239,7.0,10.0,83,0.00,,,0.00,,2013-02-13 23:52:00,
2013-02-13 16:01:00,52.0,48.0,30.24,WSW,250,7.0,12.0,85,0.00,,,0.00,,2013-02-14 00:01:00,
2013-02-13 16:11:00,52.0,48.0,30.24,WSW,250,7.0,12.0,85,0.00,,,0.00,,2013-02-14 00:11:00,
2013-02-13 16:21:00,52.0,48.0,30.24,West,264,7.0,11.0,85,0.00,,,0.00,,2013-02-14 00:21:00,
2013-02-13 16:31:00,51.0,47.0,30.24,South,177,6.0,11.0,86,0.00,,,0.00,,2013-02-14 00:31:00,
2013-02-13 16:41:00,51.0,47.0,30.24,South,177,6.0,11.0,86,0.00,,,0.00,,2013-02-14 00:41:00,
2013-02-13 16:52:00,52.0,47.0,30.24,South,172,3.0,8.0,84,0.00,,,0.00,,2013-02-14 00:52:00,
2013-02-13 17:01:00,50.0,46.0,30.24,ESE,119,2.0,8.0,87,0.00,,,0.00,,2013-02-14 01:01:00,
2013-02-13 17:11:00,50.0,46.0,30.24,ESE,119,2.0,8.0,87,0.00,,,0.00,,2013-02-14 01:11:00,
2013-02-13 17:21:00,51.0,47.0,30.23,ESE,109,4.0,7.0,86,0.00,,,0.00,,2013-02-14 01:21:00,
2013-02-13 17:31:00,51.0,47.0,30.23,SSW,200,2.0,7.0,87,0.00,,,0.00,,2013-02-14 01:31:00,
2013-02-13 17:41:00,51.0,47.0,30.23,SSW,200,2.0,7.0,87,0.00,,,0.00,,2013-02-14 01:41:00,
2013-02-13 17:51:00,51.0,48.0,30.22,East,101,6.0,8.0,88,0.00,,,0.00,,2013-02-14 01:51:00,
2013-02-13 18:01:00,50.0,47.0,30.22,South,184,7.0,10.0,91,0.00,,,0.00,,2013-02-14 02:01:00,
2013-02-13 18:11:00,50.0,47.0,30.22,South,184,7.0,10.0,91,0.00,,,0.00,,2013-02-14 02:11:00,
2013-02-13 18:21:00,49.0,47.0,30.22,South,179,5.0,10.0,93,0.00,,,0.00,,2013-02-14 02:21:00,
2013-02-13 18:31:00,49.0,47.0,30.22,ESE,122,6.0,10.0,93,0.00,,,0.00,,2013-02-14 02:31:00,
2013-02-13 18:41:00,49.0,47.0,30.22,ESE,122,6.0,10.0,93,0.00,,,0.00,,2013-02-14 02:41:00,
2013-02-13 18:51:00,49.0,47.0,30.22,ESE,122,6.0,10.0,93,0.00,,,0.00,,2013-02-14 02:51:00,
2013-02-13 19:02:00,50.0,48.0,30.22,SSW,203,8.0,11.0,93,0.00,,,0.00,,2013-02-14 03:02:00,
2013-02-13 19:11:00,50.0,48.0,30.22,SSW,203,8.0,11.0,93,0.00,,,0.00,,2013-02-14 03:11:00,
2013-02-13 19:21:00,50.0,48.0,30.22,South,183,5.0,11.0,93,0.00,,,0.00,,2013-02-14 03:21:00,
2013-02-13 19:31:00,50.0,48.0,30.22,SSE,155,5.0,11.0,93,0.00,,,0.00,,2013-02-14 03:31:00,
2013-02-13 19:42:00,50.0,48.0,30.22,SSE,155,5.0,11.0,93,0.00,,,0.00,,2013-02-14 03:42:00,
2013-02-13 19:52:00,50.0,48.0,30.23,South,174,6.0,12.0,93,0.00,,,0.00,,2013-02-14 03:52:00,
2013-02-13 20:01:00,50.0,48.0,30.23,NNW,330,2.0,12.0,93,0.00,,,0.00,,2013-02-14 04:01:00,
2013-02-13 20:11:00,50.0,48.0,30.23,SE,145,5.0,9.0,93,0.00,,,0.00,,2013-02-14 04:11:00,
2013-02-13 20:21:00,50.0,48.0,30.23,SE,145,5.0,9.0,93,0.00,,,0.00,,2013-02-14 04:21:00,
2013-02-13 20:31:00,50.0,48.0,30.23,South,179,6.0,10.0,93,0.00,,,0.00,,2013-02-14 04:31:00,
2013-02-13 20:41:00,50.0,48.0,30.23,South,179,6.0,10.0,93,0.00,,,0.00,,2013-02-14 04:41:00,
2013-02-13 20:51:00,50.0,48.0,30.23,SE,142,3.0,8.0,93,0.00,,,0.00,,2013-02-14 04:51:00,
2013-02-13 21:01:00,50.0,48.0,30.23,SSE,161,6.0,8.0,93,0.00,,,0.00,,2013-02-14 05:01:00,
2013-02-13 21:11:00,50.0,48.0,30.23,SSE,161,6.0,8.0,93,0.00,,,0.00,,2013-02-14 05:11:00,
2013-02-13 21:21:00,50.0,48.0,30.23,SSW,201,4.0,8.0,93,0.00,,,0.00,,2013-02-14 05:21:00,
2013-02-13 21:31:00,50.0,48.0,30.23,SSW,193,2.0,5.0,93,0.00,,,0.00,,2013-02-14 05:31:00,
2013-02-13 21:41:00,50.0,48.0,30.23,SSW,193,2.0,5.0,93,0.00,,,0.00,,2013-02-14 05:41:00,
2013-02-13 21:52:00,49.0,47.0,30.23,SW,214,5.0,9.0,93,0.00,,,0.00,,2013-02-14 05:52:00,
2013-02-13 22:01:00,49.0,47.0,30.24,SW,214,4.0,9.0,93,0.00,,,0.00,,2013-02-14 06:01:00,
2013-02-13 22:11:00,49.0,47.0,30.24,WSW,255,5.0,9.0,94,0.00,,,0.00,,2013-02-14 06:11:00,
2013-02-13 22:21:00,49.0,47.0,30.24,WSW,255,5.0,9.0,94,0.00,,,0.00,,2013-02-14 06:21:00,
2013-02-13 22:31:00,49.0,47.0,30.24,SW,226,5.0,10.0,94,0.00,,,0.00,,2013-02-14 06:31:00,
2013-02-13 22:41:00,49.0,47.0,30.24,SW,226,5.0,10.0,94,0.00,,,0.00,,2013-02-14 06:41:00,
2013-02-13 22:52:00,49.0,47.0,30.24,SSW,202,8.0,11.0,94,0.00,,,0.00,,2013-02-14 06:52:00,
2013-02-13 23:01:00,48.0,46.0,30.24,West,261,7.0,12.0,94,0.00,,,0.00,,2013-02-14 07:01:00,
2013-02-13 23:11:00,48.0,46.0,30.24,West,261,7.0,12.0,94,0.00,,,0.00,,2013-02-14 07:11:00,
2013-02-13 23:21:00,48.0,46.0,30.24,WSW,246,6.0,10.0,94,0.00,,,0.00,,2013-02-14 07:21:00,
2013-02-13 23:31:00,48.0,46.0,30.24,West,270,6.0,11.0,94,0.00,,,0.00,,2013-02-14 07:31:00,
2013-02-13 23:41:00,48.0,46.0,30.24,West,270,6.0,11.0,94,0.00,,,0.00,,2013-02-14 07:41:00,
2013-02-13 23:52:00,48.0,46.0,30.23,SW,230,5.0,10.0,94,0.00,,,0.00,,2013-02-14 07:52:00,